Location: Le Vaud
(46.4779°N, 6.2346°E)
Time: 18:27:41
(UTC+00:00)

USA 215 - Pass Details

Date: 18 February 2020
Orbit: 1098 x 1110 km, 123.0° (Epoch: 08 March)

Event Time Altitude Azimuth Distance (km) Brightness Sun altitude
Rises 04:12:08 0° 60° (ENE) 3,921 7.3 -25.2°
Reaches altitude 10° 04:14:46 10° 53° (NE) 2,964 6.3 -24.7°
Maximum altitude 04:20:43 39° 348° (NNW) 1,592 4.0 -23.7°
Enters shadow 04:22:54 31° 309° (NW) 1,838 4.1 -23.3°
